M I D A S
Marine Information and Data Acquisition System
Tripno 1738 of the Zeeleeuw from 2009-07-24 06:57:02 to 2009-07-24 14:23:39
Back to CruiseResearch ActivitiesStationsMapUnderway DataData graphs

EquipmentUnitsComments
TimeDGPSUTC
LatitudeDGPSDM.mWGS84
LongitudeDGPSDM.mWGS84
SpeedMeteo Stationm/sRelative wind speed
DirectionMeteo StationdegRelative wind direction
TemperatureMeteo Stationdeg CelciusAir temperature
PressureMeteo StationPaAtmospheric pressure
HumidityMeteo Station%Relative humidity
Missing or incorrect values are displayed as -999
Metereological data collected by the RV Zeeleeuw from 2009-07-24 06:43:54 to 2009-07-24 14:21:55
Time Latitude Longitude Speed Direction Temperature Pressure Humidity
2009-07-24 06:45 51°13.681 2°55.881 2.4 27 14.5 101080 86
2009-07-24 06:46 51°13.695 2°55.797 4.9 36 14.5 101080 88
2009-07-24 06:47 51°13.699 2°55.74 4.6 42 14.6 101080 86
2009-07-24 06:48 51°13.714 2°55.738 2.8 25 14.5 101080 85
2009-07-24 06:48 51°13.774 2°55.695 5.1 21 14.6 101090 88
2009-07-24 06:49 51°13.889 2°55.591 2.8 28 14.7 101080 86
2009-07-24 06:50 51°14.024 2°55.49 2.7 25 14.7 101080 86
2009-07-24 06:51 51°14.158 2°55.383 3.6 24 14.8 101080 86
2009-07-24 06:52 51°14.277 2°55.233 5.3 22 14.8 101080 87
2009-07-24 06:53 51°14.383 2°55.036 9.6 21 14.8 101070 85
2009-07-24 06:54 51°14.518 2°54.865 7 254 14.9 101070 85
2009-07-24 06:55 51°14.681 2°54.719 8.1 246 15.1 101070 87
2009-07-24 06:56 51°14.846 2°54.565 6.4 253 15.1 101070 84
2009-07-24 06:57 51°15.014 2°54.418 7.4 253 15.2 101070 85
2009-07-24 06:58 51°15.181 2°54.268 8 251 15.2 101070 85
2009-07-24 06:59 51°15.348 2°54.115 9.4 249 15.3 101060 86
2009-07-24 07:00 51°15.513 2°53.955 9.8 251 15.3 101070 85
2009-07-24 07:01 51°15.679 2°53.792 9.2 253 15.3 101070 84
2009-07-24 07:02 51°15.845 2°53.624 9.4 249 15.3 101080 85
2009-07-24 07:03 51°16.01 2°53.455 8.9 251 15.4 101060 81
2009-07-24 07:04 51°16.177 2°53.288 9.1 254 15.4 101060 83
2009-07-24 07:05 51°16.343 2°53.12 8.7 252 15.4 101080 84
2009-07-24 07:06 51°16.511 2°52.957 8.7 251 15.5 101070 83
2009-07-24 07:07 51°16.677 2°52.793 9.9 250 15.5 101070 81
2009-07-24 07:08 51°16.845 2°52.64 8.4 251 15.6 101070 82
2009-07-24 07:09 51°17.015 2°52.499 9.2 254 15.7 101060 82
2009-07-24 07:10 51°17.184 2°52.353 10.9 256 15.7 101070 83
2009-07-24 07:11 51°17.361 2°52.244 8.3 261 15.7 101070 81
2009-07-24 07:12 51°17.547 2°52.22 5.3 266 15.7 101070 80
2009-07-24 07:13 51°17.733 2°52.214 5.2 265 15.6 101070 80
2009-07-24 07:14 51°17.919 2°52.19 5.9 262 15.6 101070 80
2009-07-24 07:15 51°18.104 2°52.143 9.1 259 15.7 101070 82
2009-07-24 07:16 51°18.291 2°52.105 4.6 262 15.6 101070 79
2009-07-24 07:17 51°18.478 2°52.063 7 261 15.7 101060 82
2009-07-24 07:18 51°18.666 2°52.018 5.1 265 15.7 101080 81
2009-07-24 07:19 51°18.853 2°51.975 6.1 263 15.7 101070 81
2009-07-24 07:20 51°19.04 2°51.94 5.9 263 15.8 101070 79
2009-07-24 07:21 51°19.227 2°51.908 4.6 267 15.7 101070 80
2009-07-24 07:22 51°19.414 2°51.871 4.6 261 15.7 101080 80
2009-07-24 07:23 51°19.601 2°51.834 4.6 266 15.8 101080 81
2009-07-24 07:24 51°19.788 2°51.797 5.9 264 15.8 101070 82
2009-07-24 07:25 51°19.975 2°51.762 5.9 263 15.7 101080 80
2009-07-24 07:26 51°20.161 2°51.721 5.9 266 15.8 101070 82
2009-07-24 07:27 51°20.349 2°51.677 4.7 265 15.8 101070 81
2009-07-24 07:28 51°20.537 2°51.639 4.4 264 15.9 101070 82
2009-07-24 07:29 51°20.726 2°51.6 5.8 261 15.9 101080 81
2009-07-24 07:30 51°20.915 2°51.567 5.4 260 15.9 101080 81
2009-07-24 07:31 51°21.103 2°51.534 10.8 261 15.9 101080 80
2009-07-24 07:32 51°21.291 2°51.501 7.2 262 15.9 101070 79
2009-07-24 07:33 51°21.479 2°51.465 5.8 263 15.9 101070 80
2009-07-24 07:34 51°21.666 2°51.429 7.5 260 16 101070 80
2009-07-24 07:35 51°21.852 2°51.396 5.3 264 16 101070 78
2009-07-24 07:36 51°22.039 2°51.366 4.8 262 16 101070 74
2009-07-24 07:37 51°22.225 2°51.338 7.2 265 16.1 101080 78
2009-07-24 07:38 51°22.412 2°51.308 6 260 16.1 101080 77
2009-07-24 07:39 51°22.598 2°51.278 5.7 262 16.1 101080 77
2009-07-24 07:40 51°22.783 2°51.247 5.5 268 16 101080 76
2009-07-24 07:41 51°22.968 2°51.219 4.6 265 16 101090 78
2009-07-24 07:42 51°23.153 2°51.195 5.6 267 16.1 101080 77
2009-07-24 07:43 51°23.337 2°51.173 7 270 16 101070 79
2009-07-24 07:44 51°23.52 2°51.147 6.1 264 16.1 101080 80
2009-07-24 07:45 51°23.705 2°51.117 6.3 264 16.1 101070 78
2009-07-24 07:46 51°23.891 2°51.09 4.9 264 16.1 101070 76
2009-07-24 07:47 51°24.078 2°51.06 6.4 12 16.1 101070 78
2009-07-24 07:48 51°24.261 2°51.034 6.9 267 16.1 101070 71
2009-07-24 07:49 51°24.445 2°51.008 6 268 16 101070 74
2009-07-24 07:50 51°24.628 2°50.979 6.8 268 16.1 101060 74
2009-07-24 07:51 51°24.811 2°50.951 7.2 261 16.2 101070 76
2009-07-24 07:52 51°24.992 2°50.921 6 263 16.2 101070 79
2009-07-24 07:53 51°25.171 2°50.888 9.5 261 16.3 101060 78
2009-07-24 07:54 51°25.353 2°50.854 7.7 260 16.3 101060 78
2009-07-24 07:55 51°25.534 2°50.822 6.2 267 16.2 101070 76
2009-07-24 07:56 51°25.714 2°50.79 6 264 16.2 101060 75
2009-07-24 07:57 51°25.895 2°50.756 7.4 265 16.2 101070 76
2009-07-24 07:58 51°26.077 2°50.721 6.1 268 16.2 101060 77
2009-07-24 07:59 51°26.259 2°50.692 6.2 267 16.3 101070 76
2009-07-24 08:00 51°26.441 2°50.664 7.8 261 16.3 101060 80
2009-07-24 08:01 51°26.625 2°50.633 6.5 263 16.3 101060 76
2009-07-24 08:02 51°26.806 2°50.608 5.1 268 16.3 101060 78
2009-07-24 08:03 51°26.986 2°50.584 4.9 263 16.4 101050 79
2009-07-24 08:04 51°27.165 2°50.558 6 262 16.4 101060 78
2009-07-24 08:05 51°27.347 2°50.538 7.9 258 16.4 101060 75
2009-07-24 08:06 51°27.528 2°50.513 5 262 16.3 101060 76
2009-07-24 08:07 51°27.708 2°50.484 8 261 16.3 101050 75
2009-07-24 08:08 51°27.89 2°50.456 5.8 264 16.3 101050 76
2009-07-24 08:09 51°28.07 2°50.429 7.3 265 16.4 101060 75
2009-07-24 08:10 51°28.25 2°50.399 7 262 16.4 101060 74
2009-07-24 08:11 51°28.43 2°50.368 4.9 263 16.4 101050 76
2009-07-24 08:12 51°28.61 2°50.34 6.2 265 16.4 101050 74
2009-07-24 08:13 51°28.788 2°50.31 5.7 263 16.4 101050 77
2009-07-24 08:14 51°28.964 2°50.277 8.1 262 16.4 101060 76
2009-07-24 08:15 51°29.14 2°50.245 8.2 268 16.4 101060 76
2009-07-24 08:16 51°29.318 2°50.219 6.5 260 16.5 101050 77
2009-07-24 08:17 51°29.49 2°50.241 3.8 23 16.5 101060 77
2009-07-24 08:18 51°29.582 2°50.459 7 35 16.5 101070 74
2009-07-24 08:19 51°29.646 2°50.713 6.1 39 16.5 101060 76
2009-07-24 08:20 51°29.71 2°50.969 5.8 26 16.5 101070 76
2009-07-24 08:21 51°29.772 2°51.225 5.7 44 16.5 101070 74
2009-07-24 08:22 51°29.834 2°51.481 5.3 37 16.5 101070 76
2009-07-24 08:23 51°29.897 2°51.737 5.7 42 16.6 101060 77
2009-07-24 08:24 51°29.961 2°51.99 5.1 34 16.5 101060 76
2009-07-24 08:25 51°30.025 2°52.242 6.3 41 16.5 101080 76
2009-07-24 08:26 51°30.082 2°52.481 4.9 39 16.5 101070 76
2009-07-24 08:27 51°30.144 2°52.732 4.3 39 16.4 101070 75
2009-07-24 08:28 51°30.206 2°52.985 5.8 39 16.5 101060 77
2009-07-24 08:29 51°30.269 2°53.243 5.4 39 16.6 101070 77
2009-07-24 08:30 51°30.332 2°53.496 5.3 33 16.7 101070 77
2009-07-24 08:31 51°30.393 2°53.748 5.4 33 16.6 101060 74
2009-07-24 08:32 51°30.457 2°54.002 6.5 37 16.6 101060 78
2009-07-24 08:33 51°30.519 2°54.256 6.5 39 16.6 101070 78
2009-07-24 08:34 51°30.582 2°54.507 6 39 16.5 101070 76
2009-07-24 08:35 51°30.642 2°54.757 7.3 41 16.6 101070 76
2009-07-24 08:36 51°30.702 2°55.007 6.7 41 16.6 101070 77
2009-07-24 08:37 51°30.761 2°55.259 6.7 42 16.6 101070 78
2009-07-24 08:38 51°30.819 2°55.515 7.4 29 16.5 101080 77
2009-07-24 08:39 51°30.877 2°55.767 7.1 38 16.5 101070 75
2009-07-24 08:40 51°30.93 2°56.015 7.5 38 16.5 101080 76
2009-07-24 08:41 51°30.982 2°56.262 7.9 42 16.5 101080 77
2009-07-24 08:42 51°31.041 2°56.506 6.8 44 16.5 101080 77
2009-07-24 08:43 51°31.113 2°56.739 7.1 45 16.5 101080 76
2009-07-24 08:44 51°31.203 2°56.956 5.5 25 16.4 101080 73
2009-07-24 08:45 51°31.3 2°57.155 3.3 20 16.5 101070 75
2009-07-24 08:46 51°31.404 2°57.352 4.6 21 16.8 101070 76
2009-07-24 08:47 51°31.506 2°57.548 3.7 23 17.2 101080 76
2009-07-24 08:48 51°31.604 2°57.755 6.3 26 17.4 101070 75
2009-07-24 08:49 51°31.704 2°57.956 3.9 21 17.3 101080 74
2009-07-24 08:50 51°31.803 2°58.163 4.3 29 17.4 101080 74
2009-07-24 08:51 51°31.909 2°58.358 4.4 27 17.7 101070 72
2009-07-24 08:52 51°32.027 2°58.536 5.5 28 17.7 101070 68
2009-07-24 08:53 51°32.154 2°58.696 7.7 28 17.5 101080 71
2009-07-24 08:54 51°32.286 2°58.846 8 23 17.2 101070 72
2009-07-24 08:55 51°32.421 2°58.986 8 27 17 101080 72
2009-07-24 08:56 51°32.561 2°59.118 7.7 25 16.9 101080 72
2009-07-24 08:57 51°32.715 2°59.199 5.8 262 16.8 101070 75
2009-07-24 08:58 51°32.867 2°59.079 11 242 16.9 101050 76
2009-07-24 08:59 51°32.981 2°58.871 15.2 247 17 101020 76
2009-07-24 09:00 51°33.091 2°58.656 9.7 24 17 101050 76
2009-07-24 09:01 51°33.201 2°58.428 15.2 23 17 101020 75
2009-07-24 09:02 51°33.307 2°58.193 13.3 25 17.1 101020 76
2009-07-24 09:03 51°33.41 2°57.95 17.8 246 17.1 101020 76
2009-07-24 09:04 51°33.512 2°57.708 15.5 23 17.1 101010 75
2009-07-24 09:05 51°33.614 2°57.462 13.1 244 17.1 101010 76
2009-07-24 09:06 51°33.717 2°57.219 13.6 249 17 101020 76
2009-07-24 09:07 51°33.819 2°56.974 16.4 25 17 101020 76
2009-07-24 09:08 51°33.921 2°56.727 17.9 25 17.1 101010 77
2009-07-24 09:09 51°34.02 2°56.476 17.3 21 17 101010 77
2009-07-24 09:10 51°34.121 2°56.227 15.8 27 16.9 101000 75
2009-07-24 09:11 51°34.221 2°55.978 17.5 25 16.9 101010 76
2009-07-24 09:12 51°34.232 2°55.683 19.4 320 16.8 101010 74
2009-07-24 09:13 51°34.117 2°55.416 18.5 331 16.8 101020 77
2009-07-24 09:14 51°33.99 2°55.139 18.4 328 16.7 101000 75
2009-07-24 09:15 51°33.872 2°54.859 18.9 324 16.8 101020 75
2009-07-24 09:16 51°33.751 2°54.577 19.6 323 16.9 101010 76
2009-07-24 09:17 51°33.636 2°54.298 16.4 324 16.8 101010 75
2009-07-24 09:18 51°33.518 2°54.014 14.2 324 16.8 101030 75
2009-07-24 09:19 51°33.399 2°53.732 19.9 324 16.8 101020 76
2009-07-24 09:20 51°33.278 2°53.451 15.3 324 16.7 101010 76
2009-07-24 09:21 51°33.159 2°53.168 20.2 322 16.9 101020 77
2009-07-24 09:22 51°33.038 2°52.882 18.5 322 16.9 101030 77
2009-07-24 09:23 51°32.916 2°52.598 14.7 320 16.9 101030 77
2009-07-24 09:24 51°32.795 2°52.317 16.9 326 16.9 101040 76
2009-07-24 09:25 51°32.673 2°52.038 14.8 325 17 101050 78
2009-07-24 09:26 51°32.553 2°51.758 17.1 328 17 101030 76
2009-07-24 09:27 51°32.429 2°51.477 18 329 17.1 101040 76
2009-07-24 09:28 51°32.303 2°51.198 16.3 331 17.1 101040 76
2009-07-24 09:29 51°32.181 2°50.922 17.1 329 17 101040 74
2009-07-24 09:30 51°32.061 2°50.643 20.9 331 17 101020 72
2009-07-24 09:31 51°31.938 2°50.363 18.2 333 17.1 101020 72
2009-07-24 09:32 51°31.816 2°50.085 18.3 331 17.2 101030 72
2009-07-24 09:33 51°31.694 2°49.806 21.6 329 17.2 101050 73
2009-07-24 09:34 51°31.572 2°49.526 19 329 17.1 101020 72
2009-07-24 09:35 51°31.451 2°49.245 15.6 329 17.2 101040 73
2009-07-24 09:36 51°31.329 2°48.967 19.4 331 17.2 101020 72
2009-07-24 09:37 51°31.208 2°48.686 16.1 331 17.2 101030 71
2009-07-24 09:38 51°31.086 2°48.408 17.5 326 17.1 101020 72
2009-07-24 09:39 51°30.973 2°48.119 15.7 329 17.1 101040 71
2009-07-24 09:40 51°30.886 2°47.817 15.7 321 17.2 101040 73
2009-07-24 09:41 51°30.897 2°47.513 19.2 24 17.2 101020 71
2009-07-24 09:42 51°31.017 2°47.314 15.3 251 17.2 101020 72
2009-07-24 09:43 51°31.175 2°47.207 11.9 256 17.3 101040 73
2009-07-24 09:44 51°31.339 2°47.16 11.6 256 17.4 101070 73
2009-07-24 09:45 51°31.503 2°47.141 13.3 259 17.4 101060 73
2009-07-24 09:46 51°31.667 2°47.139 11.1 260 17.3 101060 73
2009-07-24 09:47 51°31.831 2°47.136 10.1 258 17.3 101060 73
2009-07-24 09:48 51°31.996 2°47.129 8.8 267 17.2 101060 72
2009-07-24 09:49 51°32.16 2°47.122 9.5 265 17.2 101070 72
2009-07-24 09:50 51°32.324 2°47.122 15.3 261 17.2 101070 71
2009-07-24 09:51 51°32.487 2°47.118 11.7 262 17.1 101060 69
2009-07-24 09:52 51°32.651 2°47.122 8.1 263 17.1 101080 71
2009-07-24 09:53 51°32.816 2°47.123 7.1 266 17.2 101060 72
2009-07-24 09:54 51°32.981 2°47.114 11.5 262 17.2 101070 72
2009-07-24 09:55 51°33.147 2°47.108 7.5 265 17.2 101070 72
2009-07-24 09:56 51°33.311 2°47.121 8.4 266 17.2 101070 73
2009-07-24 09:57 51°33.475 2°47.122 7.3 259 17.2 101080 73
2009-07-24 09:58 51°33.642 2°47.128 7.5 262 17.2 101060 72
2009-07-24 09:59 51°33.807 2°47.131 9.7 268 17.1 101080 72
2009-07-24 10:00 51°33.972 2°47.137 7.6 260 17.1 101070 73
2009-07-24 10:01 51°34.136 2°47.139 8.3 264 17.1 101060 71
2009-07-24 10:02 51°34.3 2°47.147 8.3 264 17.2 101070 74
2009-07-24 10:03 51°34.464 2°47.14 7.2 267 17.1 101050 72
2009-07-24 10:04 51°34.626 2°47.132 6.2 263 17.1 101070 73
2009-07-24 10:05 51°34.789 2°47.134 10.2 260 17.1 101070 72
2009-07-24 10:06 51°34.951 2°47.127 12.3 259 17.1 101060 73
2009-07-24 10:07 51°35.115 2°47.123 10.4 263 17.1 101080 72
2009-07-24 10:08 51°35.277 2°47.127 9.1 263 17.1 101070 72
2009-07-24 10:09 51°35.435 2°47.162 8.2 269 17.1 101080 73
2009-07-24 10:10 51°35.577 2°47.267 10.5 22 17 101080 69
2009-07-24 10:11 51°35.718 2°47.372 11.8 21 16.9 101080 71
2009-07-24 10:12 51°35.861 2°47.477 7.7 270 16.9 101080 71
2009-07-24 10:13 51°36.003 2°47.592 8.2 26 16.9 101060 70
2009-07-24 10:14 51°36.147 2°47.695 8.2 17 17 101080 72
2009-07-24 10:15 51°36.288 2°47.804 6.6 269 17 101070 72
2009-07-24 10:16 51°36.43 2°47.905 10.2 270 17 101070 74
2009-07-24 10:17 51°36.571 2°48.012 9.4 34 17 101090 73
2009-07-24 10:19 51°36.716 2°48.113 10.1 270 17 101060 75
2009-07-24 10:19 51°36.853 2°48.224 6.3 22 17 101070 74
2009-07-24 10:20 51°36.988 2°48.351 9.5 27 17.1 101070 76
2009-07-24 10:21 51°37.124 2°48.471 7 26 17 101070 76
2009-07-24 10:22 51°37.258 2°48.599 7.9 29 17 101070 76
2009-07-24 10:23 51°37.394 2°48.729 9.8 25 16.9 101060 75
2009-07-24 10:24 51°37.531 2°48.847 7.4 22 16.9 101070 75
2009-07-24 10:25 51°37.668 2°48.97 8.2 15 16.9 101070 78
2009-07-24 10:26 51°37.805 2°49.082 7.4 269 16.9 101070 78
2009-07-24 10:27 51°37.944 2°49.199 6.9 26 17 101070 78
2009-07-24 10:28 51°38.083 2°49.318 6.8 25 16.9 101070 78
2009-07-24 10:30 51°38.222 2°49.44 8.2 30 16.9 101060 78
2009-07-24 10:31 51°38.36 2°49.554 5.6 264 16.9 101060 78
2009-07-24 10:31 51°38.497 2°49.666 5.7 267 16.9 101050 78
2009-07-24 10:32 51°38.639 2°49.779 8.1 24 16.8 101060 77
2009-07-24 10:33 51°38.781 2°49.892 6.5 269 16.9 101060 76
2009-07-24 10:35 51°38.925 2°50.011 6.3 22 16.9 101060 79
2009-07-24 10:35 51°39.065 2°50.112 5.7 263 16.9 101050 79
2009-07-24 10:36 51°39.203 2°50.238 5.6 20 16.8 101050 78
2009-07-24 10:37 51°39.339 2°50.375 6.5 269 16.8 101060 77
2009-07-24 10:38 51°39.476 2°50.513 5.6 270 16.8 101060 78
2009-07-24 10:39 51°39.613 2°50.644 7.9 18 16.8 101060 77
2009-07-24 10:41 51°39.755 2°50.766 8.1 262 16.8 101060 76
2009-07-24 10:41 51°39.894 2°50.874 6.1 268 16.5 101060 75
2009-07-24 10:42 51°39.929 2°51.117 8.5 34 16.6 101070 79
2009-07-24 10:43 51°39.806 2°51.334 13.4 19 16.5 101050 78
2009-07-24 10:44 51°39.664 2°51.544 10 18 16.4 101060 79
2009-07-24 10:45 51°39.522 2°51.754 10.2 15 16.4 101060 78
2009-07-24 10:46 51°39.381 2°51.963 10.2 18 16.3 101050 78
2009-07-24 10:47 51°39.241 2°52.17 11.3 18 16.4 101050 82
2009-07-24 10:48 51°39.098 2°52.38 11.2 21 16.3 101050 80
2009-07-24 10:49 51°38.956 2°52.587 10.6 13 16.4 101050 81
2009-07-24 10:50 51°38.817 2°52.793 10.6 21 16.3 101040 82
2009-07-24 10:51 51°38.675 2°53.002 9.1 20 16.3 101050 81
2009-07-24 10:52 51°38.535 2°53.211 9.4 18 16.3 101060 82
2009-07-24 10:53 51°38.397 2°53.423 11.1 14 16.3 101060 83
2009-07-24 10:55 51°38.257 2°53.637 8.2 14 16.3 101060 83
2009-07-24 10:55 51°38.117 2°53.838 10.8 19 16.4 101060 83
2009-07-24 10:56 51°37.98 2°54.047 12 16 16.4 101070 83
2009-07-24 10:57 51°37.836 2°54.25 9.5 16 16.4 101060 83
2009-07-24 10:58 51°37.702 2°54.47 9.6 15 16.4 101060 82
2009-07-24 10:59 51°37.573 2°54.693 10.1 10 16.5 101060 82
2009-07-24 11:00 51°37.443 2°54.915 12.6 4 16.5 101070 81
2009-07-24 11:02 51°37.253 2°54.94 17.8 341 16.5 101000 80
2009-07-24 11:03 51°37.137 2°54.738 21.1 327 16.5 101060 82
2009-07-24 11:03 51°37.038 2°54.481 18.2 331 16.5 101040 80
2009-07-24 11:04 51°36.933 2°54.225 14.7 329 16.5 101060 79
2009-07-24 11:06 51°36.825 2°53.972 19.6 327 16.6 101030 79
2009-07-24 11:06 51°36.719 2°53.721 19.4 332 16.7 101060 78
2009-07-24 11:07 51°36.611 2°53.465 14.5 335 16.8 101050 81
2009-07-24 11:08 51°36.503 2°53.21 18.2 333 16.6 101070 79
2009-07-24 11:09 51°36.396 2°52.953 17.8 331 16.4 101060 76
2009-07-24 11:10 51°36.29 2°52.694 19.1 330 16.5 101040 76
2009-07-24 11:11 51°36.178 2°52.443 17 332 16.5 101080 77
2009-07-24 11:12 51°36.065 2°52.192 15.5 332 16.4 101070 73
2009-07-24 11:13 51°35.954 2°51.943 17.3 332 16.4 101070 75
2009-07-24 11:14 51°35.842 2°51.693 16.7 329 16.4 101080 74
2009-07-24 11:16 51°35.732 2°51.441 18.9 330 16.5 101070 74
2009-07-24 11:16 51°35.629 2°51.203 16.6 330 16.5 101090 72
2009-07-24 11:17 51°35.52 2°50.948 18.5 328 16.5 101070 72
2009-07-24 11:18 51°35.403 2°50.704 16.4 337 16.5 101070 73
2009-07-24 11:19 51°35.241 2°50.703 13.6 15 16.5 101030 75
2009-07-24 11:20 51°35.116 2°50.919 12.9 15 16.4 101070 74
2009-07-24 11:21 51°34.984 2°51.136 10 11 16.4 101060 75
2009-07-24 11:22 51°34.848 2°51.348 12.1 12 16.4 101080 75
2009-07-24 11:23 51°34.71 2°51.553 9.4 8 16.5 101070 76
2009-07-24 11:25 51°34.573 2°51.76 11.7 11 16.5 101080 76
2009-07-24 11:25 51°34.438 2°51.956 11.4 12 16.5 101070 75
2009-07-24 11:26 51°34.303 2°52.157 15.9 11 16.5 101070 75
2009-07-24 11:27 51°34.169 2°52.358 14.2 17 16.4 101070 73
2009-07-24 11:28 51°34.03 2°52.557 12 14 16.5 101080 73
2009-07-24 11:29 51°33.891 2°52.756 10.7 13 16.5 101070 75
2009-07-24 11:30 51°33.798 2°52.986 4.7 45 16.6 101080 76
2009-07-24 11:31 51°33.878 2°53.203 7.1 26 16.5 101120 74
2009-07-24 11:32 51°33.973 2°53.419 2.8 21 16.6 101120 73
2009-07-24 11:33 51°34.07 2°53.637 5.2 23 16.6 101110 72
2009-07-24 11:34 51°34.165 2°53.859 3.7 27 17.1 101120 75
2009-07-24 11:35 51°34.258 2°54.082 4.3 22 17.5 101110 69
2009-07-24 11:36 51°34.353 2°54.302 4 20 17.9 101120 68
2009-07-24 11:37 51°34.448 2°54.53 5.8 26 18 101110 65
2009-07-24 11:38 51°34.541 2°54.759 4.9 27 17.9 101110 67
2009-07-24 11:39 51°34.638 2°54.982 4.7 20 18 101110 66
2009-07-24 11:40 51°34.742 2°55.196 4.1 30 18.1 101120 67
2009-07-24 11:42 51°34.843 2°55.413 2.5 27 18.1 101120 66
2009-07-24 11:42 51°34.944 2°55.623 4.8 20 18 101120 68
2009-07-24 11:43 51°35.042 2°55.848 4.8 27 17.9 101110 70
2009-07-24 11:44 51°35.142 2°56.068 4.9 22 17.8 101120 69
2009-07-24 11:45 51°35.24 2°56.289 3.7 22 17.8 101120 68
2009-07-24 11:46 51°35.34 2°56.509 2.7 28 17.6 101110 68
2009-07-24 11:47 51°35.442 2°56.729 3.4 21 17.3 101120 71
2009-07-24 11:48 51°35.54 2°56.952 4 23 17.3 101120 73
2009-07-24 11:49 51°35.641 2°57.179 3.7 26 17.3 101110 75
2009-07-24 11:50 51°35.743 2°57.401 5.3 30 17.5 101120 68
2009-07-24 11:51 51°35.847 2°57.624 3.4 28 17.6 101120 71
2009-07-24 11:52 51°35.924 2°57.866 7.2 27 17.7 101110 71
2009-07-24 11:53 51°35.835 2°58.101 10.7 6 17.6 101090 72
2009-07-24 11:54 51°35.663 2°58.228 16.9 2 17.3 101070 74
2009-07-24 11:55 51°35.482 2°58.327 18.4 359 17.1 101040 75
2009-07-24 11:56 51°35.3 2°58.426 11.9 359 16.9 101050 73
2009-07-24 11:57 51°35.116 2°58.514 17.4 359 17 101050 77
2009-07-24 11:58 51°34.933 2°58.597 14.4 5 16.9 101040 76
2009-07-24 11:59 51°34.749 2°58.678 13.7 2 16.8 101050 76
2009-07-24 12:00 51°34.565 2°58.761 14.7 4 16.8 101040 78
2009-07-24 12:01 51°34.377 2°58.846 13.4 5 16.8 101050 79
2009-07-24 12:02 51°34.192 2°58.93 14.3 3 16.7 101050 80
2009-07-24 12:03 51°34.005 2°59.021 13.7 359 16.7 101050 81
2009-07-24 12:05 51°33.814 2°59.118 14.9 359 16.7 101060 81
2009-07-24 12:05 51°33.626 2°59.211 14.6 359 16.7 101060 83
2009-07-24 12:06 51°33.434 2°59.309 13 4 16.6 101070 81
2009-07-24 12:07 51°33.24 2°59.412 12.7 359 16.6 101080 82
2009-07-24 12:09 51°33.051 2°59.53 13.1 -999 16.7 101090 83
2009-07-24 12:09 51°32.871 2°59.626 13.1 3 16.7 101060 82
2009-07-24 12:10 51°32.684 2°59.727 12.9 356 16.7 101070 83
2009-07-24 12:11 51°32.495 2°59.805 13.6 359 16.7 101070 82
2009-07-24 12:12 51°32.309 2°59.823 15.7 352 16.8 101060 82
2009-07-24 12:13 51°32.13 2°59.747 20.2 349 16.8 101060 80
2009-07-24 12:15 51°31.953 2°59.651 19.6 348 16.9 101060 80
2009-07-24 12:15 51°31.776 2°59.574 15.9 351 16.9 101060 79
2009-07-24 12:16 51°31.59 2°59.5 19.4 348 17 101070 77
2009-07-24 12:17 51°31.407 2°59.423 18 345 17 101060 77
2009-07-24 12:18 51°31.224 2°59.345 18.5 346 17 101050 77
2009-07-24 12:19 51°31.045 2°59.273 14.5 350 17.1 101050 75
2009-07-24 12:20 51°30.866 2°59.199 17.2 350 17.1 101050 75
2009-07-24 12:22 51°30.681 2°59.127 17 348 17.2 101060 76
2009-07-24 12:22 51°30.513 2°59.062 19.5 346 17.2 101050 73
2009-07-24 12:23 51°30.34 2°58.981 17 343 17.3 101050 71
2009-07-24 12:24 51°30.169 2°58.897 17.8 344 17.3 101040 70
2009-07-24 12:25 51°30.002 2°58.819 18.4 349 17.4 101040 71
2009-07-24 12:27 51°29.831 2°58.735 20.1 348 17.4 101050 73
2009-07-24 12:27 51°29.665 2°58.655 16.6 346 17.4 101070 74
2009-07-24 12:28 51°29.502 2°58.57 16.6 348 17.5 101060 72
2009-07-24 12:30 51°29.337 2°58.491 18.6 351 17.4 101060 70
2009-07-24 12:31 51°29.177 2°58.418 19.4 352 17.5 101060 68
2009-07-24 12:31 51°29.021 2°58.347 18.1 350 17.5 101050 69
2009-07-24 12:33 51°28.857 2°58.265 17 348 17.6 101050 71
2009-07-24 12:33 51°28.701 2°58.19 19.5 350 17.6 101060 73
2009-07-24 12:34 51°28.543 2°58.112 20.5 351 17.6 101070 74
2009-07-24 12:36 51°28.381 2°58.026 15.6 348 17.5 101050 75
2009-07-24 12:36 51°28.22 2°57.941 17.4 349 17.6 101070 76
2009-07-24 12:37 51°28.058 2°57.853 19.5 349 17.5 101050 75
2009-07-24 12:38 51°27.894 2°57.771 19.1 349 17.5 101050 74
2009-07-24 12:39 51°27.733 2°57.687 17.5 345 17.4 101050 73
2009-07-24 12:40 51°27.567 2°57.605 17.1 348 17.4 101030 73
2009-07-24 12:42 51°27.401 2°57.528 17.4 348 17.5 101040 74
2009-07-24 12:42 51°27.241 2°57.453 18.5 348 17.4 101050 70
2009-07-24 12:44 51°27.073 2°57.38 18.4 347 17.5 101080 70
2009-07-24 12:44 51°26.919 2°57.314 18.1 343 17.5 101040 70
2009-07-24 12:45 51°26.756 2°57.244 16.4 347 17.6 101040 69
2009-07-24 12:47 51°26.592 2°57.181 16.9 348 17.6 101060 70
2009-07-24 12:48 51°26.438 2°57.12 17.4 349 17.1 101060 66
2009-07-24 12:49 51°26.274 2°57.057 16.1 347 16.7 101060 79
2009-07-24 12:49 51°26.122 2°56.998 17.3 349 16.5 101040 79
2009-07-24 12:51 51°25.955 2°56.933 17.2 349 16.7 101050 80
2009-07-24 12:52 51°25.799 2°56.88 16.9 349 16.4 101060 82
2009-07-24 12:53 51°25.646 2°56.812 16.7 347 16.1 101040 84
2009-07-24 12:54 51°25.491 2°56.739 15.5 346 15.9 101010 85
2009-07-24 12:55 51°25.34 2°56.668 19.5 346 16 101040 84
2009-07-24 12:56 51°25.19 2°56.608 20.1 348 16 101040 84
2009-07-24 12:57 51°25.04 2°56.542 18.7 349 16.3 101040 82
2009-07-24 12:57 51°24.895 2°56.474 19.3 347 16.5 101060 80
2009-07-24 12:58 51°24.741 2°56.403 18.2 349 16.7 101060 78
2009-07-24 12:59 51°24.592 2°56.338 20.3 349 16.8 101040 74
2009-07-24 13:01 51°24.444 2°56.274 16.9 352 16.9 101050 71
2009-07-24 13:01 51°24.307 2°56.219 16.4 350 17.1 101040 72
2009-07-24 13:03 51°24.157 2°56.152 17.6 349 17.3 101060 74
2009-07-24 13:03 51°24.02 2°56.084 18.3 347 17.3 101070 72
2009-07-24 13:04 51°23.878 2°56 17 348 17.4 101060 71
2009-07-24 13:05 51°23.737 2°55.915 18 348 17.4 101070 69
2009-07-24 13:06 51°23.597 2°55.831 15.7 348 17.4 101050 69
2009-07-24 13:07 51°23.456 2°55.747 16.1 349 17.6 101070 70
2009-07-24 13:08 51°23.315 2°55.661 15.9 351 17.6 101070 69
2009-07-24 13:10 51°23.171 2°55.583 18.5 347 17.6 101070 68
2009-07-24 13:11 51°23.033 2°55.51 16.6 346 17.6 101060 68
2009-07-24 13:11 51°22.895 2°55.43 18.1 352 17.5 101070 67
2009-07-24 13:12 51°22.751 2°55.348 17 351 17.6 101070 67
2009-07-24 13:13 51°22.606 2°55.265 14.8 349 17.6 101070 69
2009-07-24 13:14 51°22.461 2°55.182 16.1 349 17.6 101060 68
2009-07-24 13:15 51°22.322 2°55.103 16 348 17.7 101080 70
2009-07-24 13:16 51°22.179 2°55.021 15.5 343 17.6 101060 69
2009-07-24 13:18 51°22.037 2°54.945 17.1 348 17.7 101060 69
2009-07-24 13:18 51°21.901 2°54.868 18 348 17.5 101050 68
2009-07-24 13:20 51°21.757 2°54.788 16.1 349 17.5 101080 70
2009-07-24 13:21 51°21.624 2°54.708 15.8 344 17.6 101080 70
2009-07-24 13:21 51°21.496 2°54.627 18.7 346 17.6 101070 71
2009-07-24 13:23 51°21.36 2°54.54 13.6 346 17.5 101090 68
2009-07-24 13:23 51°21.232 2°54.454 16.7 349 17.6 101080 68
2009-07-24 13:24 51°21.104 2°54.369 14.6 346 17.7 101070 71
2009-07-24 13:25 51°20.969 2°54.28 18.9 345 17.7 101080 70
2009-07-24 13:26 51°20.837 2°54.193 14.4 348 17.7 101080 69
2009-07-24 13:28 51°20.706 2°54.115 15.8 349 17.7 101070 69
2009-07-24 13:28 51°20.577 2°54.031 16.9 349 17.7 101070 70
2009-07-24 13:29 51°20.438 2°53.941 16 345 17.8 101080 70
2009-07-24 13:30 51°20.302 2°53.854 15.1 348 17.7 101060 69
2009-07-24 13:32 51°20.17 2°53.77 15.6 349 17.6 101060 67
2009-07-24 13:32 51°20.039 2°53.684 17 347 17.6 101070 71
2009-07-24 13:33 51°19.901 2°53.59 16.4 350 17.6 101070 70
2009-07-24 13:35 51°19.768 2°53.508 15.7 349 17.6 101080 71
2009-07-24 13:36 51°19.637 2°53.421 18.4 348 17.7 101080 72
2009-07-24 13:37 51°19.509 2°53.334 18.9 350 17.6 101050 72
2009-07-24 13:37 51°19.375 2°53.242 15.2 349 17.6 101060 69
2009-07-24 13:39 51°19.235 2°53.145 19 349 17.6 101080 69
2009-07-24 13:39 51°19.102 2°53.051 15.8 350 17.6 101060 61
2009-07-24 13:41 51°18.963 2°52.955 15.8 349 17.6 101050 72
2009-07-24 13:42 51°18.827 2°52.869 17.8 347 17.6 101070 70
2009-07-24 13:43 51°18.692 2°52.793 17.4 350 17.6 101070 71
2009-07-24 13:44 51°18.556 2°52.715 16.8 351 17.6 101070 69
2009-07-24 13:44 51°18.415 2°52.629 15.7 350 17.6 101060 71
2009-07-24 13:46 51°18.274 2°52.554 13.8 353 17.6 101080 71
2009-07-24 13:46 51°18.128 2°52.485 18.4 351 17.7 101100 72
2009-07-24 13:47 51°17.976 2°52.439 14.8 355 17.6 101080 71
2009-07-24 13:48 51°17.823 2°52.409 15.4 355 17.7 101090 71
2009-07-24 13:49 51°17.672 2°52.389 13.9 350 17.7 101080 71
2009-07-24 13:50 51°17.52 2°52.364 14.4 356 17.6 101100 71
2009-07-24 13:51 51°17.364 2°52.356 16 354 17.7 101090 71
2009-07-24 13:52 51°17.204 2°52.362 15 359 17.7 101090 73
2009-07-24 13:53 51°17.043 2°52.445 10.2 6 17.6 101110 74
2009-07-24 13:54 51°16.885 2°52.571 11.9 6 17.6 101110 75
2009-07-24 13:55 51°16.728 2°52.694 11.1 2 17.7 101110 74
2009-07-24 13:56 51°16.568 2°52.822 8.1 4 17.7 101120 73
2009-07-24 13:58 51°16.405 2°52.95 9.3 3 17.7 101100 72
2009-07-24 13:58 51°16.247 2°53.072 9.4 1 17.7 101090 73
2009-07-24 13:59 51°16.085 2°53.196 11.1 5 17.8 101090 73
2009-07-24 14:00 51°15.922 2°53.316 9.4 5 17.9 101080 73
2009-07-24 14:01 51°15.76 2°53.436 11.4 6 17.9 101100 74
2009-07-24 14:02 51°15.597 2°53.553 11 2 17.9 101100 73
2009-07-24 14:03 51°15.433 2°53.666 12 8 17.9 101110 72
2009-07-24 14:05 51°15.275 2°53.824 10.5 11 18 101090 72
2009-07-24 14:05 51°15.128 2°53.998 13.2 9 17.9 101100 68
2009-07-24 14:07 51°14.976 2°54.174 14.1 10 18 101090 67
2009-07-24 14:07 51°14.83 2°54.356 12.8 15 18.2 101100 64
2009-07-24 14:08 51°14.688 2°54.562 10 13 18.3 101100 65
2009-07-24 14:09 51°14.545 2°54.767 11.6 15 18.4 101090 64
2009-07-24 14:10 51°14.414 2°54.999 10 16 18.4 101100 66
2009-07-24 14:11 51°14.284 2°55.215 10.2 21 18.4 101110 64
2009-07-24 14:13 51°14.162 2°55.385 8.4 6 18.4 101110 64
2009-07-24 14:14 51°14.045 2°55.474 6.4 9 18.4 101120 63
2009-07-24 14:14 51°13.929 2°55.558 5.6 358 18.5 101120 63
2009-07-24 14:16 51°13.806 2°55.648 5.5 351 18.6 101120 61
2009-07-24 14:16 51°13.729 2°55.758 3.5 25 18.7 101130 60
2009-07-24 14:17 51°13.686 2°55.857 6 27 18.7 101130 60
2009-07-24 14:18 51°13.665 2°55.938 5.6 25 18.8 101130 59
2009-07-24 14:19 51°13.663 2°55.955 3.4 39 18.7 101130 59
2009-07-24 14:20 51°13.662 2°55.96 3.7 27 18.8 101130 58